Location: Greenspot (historical)
(34.0858°N, 117.1109°W)
Time: 15:43:08
(UTC+00:00)

CZ-2C R/B - Pass Details

Date: 18 April 2024
Orbit: 666 x 779 km, 98.4° (Epoch: 19 May)

Event Time Altitude Azimuth Distance (km) Brightness Sun altitude
Rises 12:23:24 0° 355° (N) 3,267 6.0 -10.6°
Reaches altitude 10° 12:26:15 10° 340° (NNW) 2,334 5.0 -10.1°
Maximum altitude 12:29:58 21° 293° (WNW) 1,704 3.9 -9.3°
Enters shadow 12:33:30 11° 248° (WSW) 2,259 4.2 -8.7°
